Hourly Data Report for October 27, 2015

All times are specified in Local Standard Time (LST). Add 1 hour to adjust for Daylight Saving Time where and when it is observed.

POND INLET A
NUNAVUT

72°41'22.000" N
77°58'08.000" W
61.60 m
2403206
71095
YIO

Download Data

Hourly Data (October 2015)
Hourly Data Report for October 27, 2015
Temp Definition
°C
Dew Point Temp Definition
°C
Rel Hum Definition
%
Wind Dir Definition
10's deg

Wind Spd Definition
km/h
Visibility Definition
km
Stn Press Definition
kPa
Hmdx Definition


Wind Chill Definition


Weather Definition


TIME
00:00 Legend Double Dagger -4.8 -8.4 76 22 13 16.1 98.54   -10 Snow
01:00 Legend Double Dagger -5.9 -6.9 93 18 15 1.6 98.61   -12 Snow
02:00 Legend Double Dagger -6.0 -7.0 93 18 15 4.0 98.65   -12 Snow
03:00 Legend Double Dagger -6.0 -7.0 93 16 13 3.2 98.71   -11 Snow
04:00 Legend Double Dagger -6.2 -7.2 93 15 13 8.1 98.76   -12 Snow
05:00 Legend Double Dagger -5.9 -7.3 90 14 11 6.4 98.83   -11 Snow
06:00 Legend Double Dagger -6.1 -7.2 92 16 9 6.4 98.93   -10 Snow
07:00 Legend Double Dagger -6.9 -8.1 91 16 8 14.5 98.98   -11 LegendNANA
08:00 Legend Double Dagger -7.4 -8.7 90 14 11 16.1 99.04   -12 LegendNANA
09:00 Legend Double Dagger -8.9 -10.4 89 11 8 16.1 99.08   -13 LegendNANA
10:00 Legend Double Dagger -6.4 -8.1 88 5 5 16.1 99.14   -9 LegendNANA
11:00 Legend Double Dagger -8.1 -9.1 92 LegendMM 4 16.1 99.20   -10 LegendNANA
12:00 Legend Double Dagger -8.0 -10.1 85 16 5 16.1 99.26   -11 LegendNANA
13:00 Legend Double Dagger -7.7 -11.2 76 16 4 16.1 99.33   -10 LegendNANA
14:00 Legend Double Dagger -7.3 -10.4 79 17 8 16.1 99.41   -11 LegendNANA
15:00 Legend Double Dagger -8.2 -10.2 86 12 5 16.1 99.47   -11 LegendNANA
16:00 Legend Double Dagger -7.0 -9.7 81 LegendMM 4 16.1 99.55   -9 LegendNANA
17:00 Legend Double Dagger -7.1 -10.0 80 17 5 16.1 99.60   -10 LegendNANA
18:00 Legend Double Dagger -7.1 -10.8 75 15 5 16.1 99.65   -10 LegendNANA
19:00 Legend Double Dagger -6.8 -11.4 70 14 15 16.1 99.69   -13 LegendNANA
20:00 Legend Double Dagger -7.2 -11.8 70 12 18 16.1 99.72   -14 LegendNANA
21:00 Legend Double Dagger -7.5 -12.4 68 14 11 16.1 99.78   -13 LegendNANA
22:00 Legend Double Dagger -9.3 -14.0 69 15 17 16.1 99.80   -16 LegendNANA
23:00 Legend Double Dagger -12.1 -15.7 75 15 24 16.1 99.84   -21 LegendNANA

Notes on Data Quality.

Legend

  • E = Estimated
  • M = Missing
  • NA = Not Available
  • ‡ = Partner data that is not subject to review by the National Climate Archives
Date modified: